This is the latest recevied weather packets stored in our database for station/object NG7M. If no packets are shown the sender has not sent any weather packets the latest 10 day(s).
| Time | Temp. | Humidity | Pressure | Rain* | Wind** | Luminosity | Snow |
|---|---|---|---|---|---|---|---|
| 1777669203 | 18.33° C | 23% | 1019 hPa | 0 mm | - | - | - |
| 1777668904 | 18.33° C | 21% | 1019 hPa | 0 mm | - | - | - |
| 1777666803 | 17.78° C | 26% | 1019.3 hPa | 0 mm | - | - | - |
| 1777663504 | 17.22° C | 25% | 1019.5 hPa | 0 mm | - | - | - |
| 1777658104 | 16.67° C | 24% | 1020.3 hPa | 0 mm | - | - | - |
| 1777656303 | 17.22° C | 17% | 1020.6 hPa | 0 mm | - | - | - |
| 1777656004 | 17.22° C | 17% | 1020.6 hPa | 0 mm | - | - | - |
| 1777655103 | 15.56° C | 24% | 1020.4 hPa | 0 mm | - | - | - |
| 1777652704 | 14.44° C | 28% | 1020.5 hPa | 0 mm | - | - | - |
| 1777651204 | 13.89° C | 27% | 1020.4 hPa | 0 mm | - | - | - |
| 1777647604 | 12.78° C | 32% | 1020.2 hPa | 0 mm | - | - | - |
| 1777647304 | 12.78° C | 32% | 1020.1 hPa | 0 mm | - | - | - |
| 1777646704 | 12.78° C | 33% | 1020 hPa | 0 mm | - | - | - |
| 1777641603 | 10° C | 33% | 1018.9 hPa | 0 mm | - | - | - |
| 1777640703 | 10° C | 34% | 1018.9 hPa | 0 mm | - | - | - |
| 1777640103 | 9.44° C | 34% | 1018.8 hPa | 0 mm | - | - | - |
| 1777638904 | 9.44° C | 33% | 1018.6 hPa | 0 mm | - | - | - |
| 1777638004 | 8.89° C | 34% | 1018.3 hPa | 0 mm | - | - | - |
| 1777634703 | 7.78° C | 42% | 1018.4 hPa | 0 mm | - | - | - |
| 1777629903 | 10.56° C | 33% | 1017.9 hPa | 0 mm | - | - | - |
| 1777628404 | 10.56° C | 34% | 1017.8 hPa | 0 mm | - | - | - |
| 1777626304 | 9.44° C | 38% | 1017.8 hPa | 0 mm | - | - | - |
| 1777624804 | 10° C | 36% | 1017.7 hPa | 0 mm | - | - | - |
| 1777620904 | 10° C | 36% | 1017.7 hPa | 0 mm | - | - | - |
| 1777619703 | 10.56° C | 34% | 1017.7 hPa | 0 mm | - | - | - |
* Rain latest hour (hover to see other rain measurements)
** Current wind speed in m/s (hover to see current wind gust speed)